Location: Unspecified
(35.0317°N, 0.0000°E)
Time: 21:08:59
(UTC+00:00)

Envisat - Visible Passes

Search period start: 22 October 2019 00:00
Search period end: 01 November 2019 00:00
Orbit: 764 x 766 km, 98.1° (Epoch: 22 October)

Date Brightness Start Highest point End Pass type
(mag) Time Alt. Az. Time Alt. Az. Time Alt. Az.
22 Oct 3.0 17:54:23 10° SSE 17:59:23 63° ENE 18:04:24 10° N visible
22 Oct 6.2 19:36:49 10° WSW 19:38:45 12° W 19:40:42 10° WNW visible
23 Oct 5.0 18:57:19 10° SSW 19:01:42 29° W 19:06:07 10° NW visible
24 Oct 6.6 05:32:44 10° ENE 05:34:22 11° E 05:36:01 10° ESE visible
24 Oct 3.3 18:19:47 10° S 18:24:51 71° W 18:29:55 10° NNW visible
25 Oct 3.2 17:43:17 10° SSE 17:48:09 49° ENE 17:53:02 10° N visible
25 Oct 5.9 19:24:19 10° SW 19:27:23 16° W 19:30:28 10° NW visible
26 Oct 4.5 18:45:42 10° SSW 18:50:23 38° W 18:55:07 10° NNW visible
27 Oct 3.0 18:08:30 10° SSE 18:13:35 89° ENE 18:18:41 10° NNW visible
28 Oct 3.5 17:32:18 10° SE 17:36:57 38° ENE 17:41:37 10° N visible
28 Oct 5.5 19:12:17 10° SW 19:16:02 21° W 19:19:48 10° NW visible
29 Oct 6.1 05:45:30 10° NE 05:48:45 17° E 05:51:59 10° SE visible
29 Oct 4.0 18:34:12 10° S 18:39:06 49° W 18:44:01 10° NNW visible
30 Oct 2.9 17:57:18 10° SSE 18:02:20 70° ENE 18:07:24 10° N visible
30 Oct 6.2 19:40:36 10° WSW 19:41:46 11° W 19:42:57 10° WNW visible
31 Oct 5.1 19:00:28 10° SSW 19:04:42 27° W 19:08:58 10° NW visible
